Aérodrome :
LOGIN :

S'inscrire | Disclaimer

   EN    FR    IT 

 










Légende :    VFR   VFR Marginal   IFR   IFR Intensif   IFR Très Intensif
Visi : 
Plafond : 
>= 8 km
>= 3000ft
5 à 8 km
1000 à 3000 ft
1500m à 5 km
500 à 1000 ft
800 à 1500m
200 à 500 ft
< 800m
< 200 ft
Symboles :   Orages  Brouillard  Fortes neiges  Fortes précipitations  Vent > 20 kt
SIGMETs :   Divers  Orages  Givrage  Turbulence  Onde Orograph.  Cendres Volcan.







- Altitude de l'aérodrome : 1768 ft


LEHC - Huesca Pirineos

DERNIER METAR :
  • 131630Z AUTO 24006KT 9999 NCD 06/02 Q1021

METARs EXPIRÉS :
  • 131600Z 25006KT CAVOK 07/02 Q1021
  • 131530Z 24005KT CAVOK 07/03 Q1021
  • 131500Z 25006KT 9999 FEW050 08/02 Q1021
  • 131430Z 26004KT 230V320 9999 FEW050 07/02 Q1021
  • 131400Z 26005KT 210V290 9999 FEW045 07/02 Q1021

TAF TAF LEHC
Valide du 13 à 09h jusqu'au 14 à 09h UTC


130800Z 1309/1409 VRB03KT 9999 SCT040 TX09/1314Z TN03/1407Z
TEMPO 1312/1317 27009KT
Pas de NOTAMs connus pour ce terrain.



MET'MAP, la Météo Aéronautique d'un coup d'oeil ! - Copyright ORBIFLY Décembre 2007 - Disclaimer

ORBIFLY MET'MAP TEAM :

Programmation & Développement : Alexandra Zaïnal
Conception & Développement : Baudouin d'Aumeries
Co-Programmation & Développement : Marc-Olivier Méhu
Soutien technique & logistique : Manuel Goepfert

Contact : metmap@orbifly.com




SOURCES & CREDITS :

   NOAA